FW3157 Weather Reports


Display with metric or nautical units.
time (UTC)temp
F
wind
direction
speed
MPH
gust
MPH
rain 1hr
in
rain 24hr
in
rain mn
in
humidity
%
barometer
mb
20260505150550 81 285 4.0 10.0 0.00 0.00 0.00 30 1013.1
20260505140512 80 152 5.0 11.0 0.00 0.00 0.00 30 1013.4
20260505130214 80 165 5.0 11.0 0.00 0.00 0.00 32 1013.8
20260505124951 80 219 4.0 8.0 0.00 0.00 0.00 31 1013.9
20260505124936 80 190 4.0 7.0 0.00 0.00 0.00 31 1014.0
20260505123952 80 217 4.0 9.0 0.00 0.00 0.00 31 1014.0
20260505123450 80 208 4.0 9.0 0.00 0.00 0.00 32 1014.1
20260505122950 81 222 3.0 9.0 0.00 0.00 0.00 35 1014.1
20260505122450 81 168 3.0 8.0 0.00 0.00 0.00 35 1014.1
20260505121950 80 221 4.0 10.0 0.00 0.00 0.00 34 1014.2
20260505121449 80 216 3.0 10.0 0.00 0.00 0.00 33 1014.2
20260505120950 80 224 3.0 11.0 0.00 0.00 0.00 36 1014.3
20260505120449 79 148 5.0 11.0 0.00 0.00 0.00 38 1014.4
20260505115950 79 214 4.0 11.0 0.00 0.00 0.00 36 1014.5
20260505115713 79 250 3.0 10.0 0.00 0.00 0.00 34 1014.5
20260505114950 80 238 3.0 7.0 0.00 0.00 0.00 34 1014.6
20260505114714 79 224 3.0 7.0 0.00 0.00 0.00 33 1014.6
20260505113948 79 58 4.0 8.0 0.00 0.00 0.00 33 1014.7
20260505113449 79 215 4.0 8.0 0.00 0.00 0.00 32 1014.7
20260505112947 79 218 3.0 7.0 0.00 0.00 0.00 32 1014.8
20260505112448 79 240 3.0 7.0 0.00 0.00 0.00 32 1014.8
20260505112210 79 214 3.0 7.0 0.00 0.00 0.00 32 1014.9
20260505111448 79 252 4.0 8.0 0.00 0.00 0.00 30 1014.9
20260505111209 78 283 5.0 8.0 0.00 0.00 0.00 28 1014.9
20260505110936 78 265 4.0 7.0 0.00 0.00 0.00 27 1014.9
20260505102211 76 197 3.0 5.0 0.00 0.00 0.00 35 1015.3
20260505101441 76 210 3.0 6.0 0.00 0.00 0.00 35 1015.3
20260505100935 76 221 2.0 6.0 0.00 0.00 0.00 35 1015.4
20260505100429 76 212 2.0 5.0 0.00 0.00 0.00 37 1015.5
20260505095929 76 238 2.0 6.0 0.00 0.00 0.00 37 1015.5
20260505095428 76 248 3.0 7.0 0.00 0.00 0.00 37 1015.5
20260505094926 75 246 3.0 7.0 0.00 0.00 0.00 38 1015.6
20260505094425 75 241 4.0 7.0 0.00 0.00 0.00 38 1015.6
20260505094151 75 316 3.0 7.0 0.00 0.00 0.00 35 1015.6
20260505093426 75 250 2.0 5.0 0.00 0.00 0.00 36 1015.7
20260505092923 74 184 3.0 6.0 0.00 0.00 0.00 37 1015.7
20260505092648 74 249 3.0 7.0 0.00 0.00 0.00 38 1015.8
20260505091924 74 206 3.0 7.0 0.00 0.00 0.00 38 1015.9
20260505091421 73 246 4.0 7.0 0.00 0.00 0.00 38 1015.9
20260505090919 73 285 4.0 7.0 0.00 0.00 0.00 37 1015.9
20260505090420 73 295 3.0 6.0 0.00 0.00 0.00 38 1016.0
20260505085919 72 293 2.0 6.0 0.00 0.00 0.00 38 1016.1
20260505085609 71 252 4.0 7.0 0.00 0.00 0.00 42 1016.1
20260505085452 72 251 3.0 6.0 0.00 0.00 0.00 40 1016.1
20260505085237 71 246 4.0 6.0 0.00 0.00 0.00 40 1016.1
20260505083919 71 259 3.0 7.0 0.00 0.00 0.00 43 1016.2
20260505083417 71 261 2.0 5.0 0.00 0.00 0.00 44 1016.2
20260505083137 70 262 3.0 5.0 0.00 0.00 0.00 45 1016.3
20260505082405 70 287 3.0 6.0 0.00 0.00 0.00 45 1016.3
20260505081859 69 263 3.0 6.0 0.00 0.00 0.00 45 1016.4
20260505081619 69 267 2.0 6.0 0.00 0.00 0.00 45 1016.4
20260505081336 69 281 2.0 5.0 0.00 0.00 0.00 45 1016.4
20260505080340 69 277 3.0 6.0 0.00 0.00 0.00 46 1016.4
20260505075834 68 292 3.0 7.0 0.00 0.00 0.00 46 1016.5
20260505075328 68 260 3.0 7.0 0.00 0.00 0.00 46 1016.5
20260505074823 68 297 3.0 6.0 0.00 0.00 0.00 46 1016.5
20260505074543 68 280 2.0 6.0 0.00 0.00 0.00 46 1016.5
20260505073811 67 278 2.0 6.0 0.00 0.00 0.00 46 1016.6
20260505073305 67 266 2.0 4.0 0.00 0.00 0.00 48 1016.6
20260505072758 66 255 2.0 4.0 0.00 0.00 0.00 50 1016.6
20260505072254 66 250 2.0 4.0 0.00 0.00 0.00 51 1016.6
20260505072009 66 266 2.0 4.0 0.00 0.00 0.00 53 1016.7
20260505071241 65 270 2.0 5.0 0.00 0.00 0.00 52 1016.7
20260505070959 65 252 2.0 5.0 0.00 0.00 0.00 53 1016.7
20260505070228 65 264 2.0 4.0 0.00 0.00 0.00 52 1016.7
20260505065723 65 275 2.0 4.0 0.00 0.00 0.00 52 1016.7
20260505065217 65 298 1.0 4.0 0.00 0.00 0.00 53 1016.9
20260505064936 64 300 1.0 3.0 0.00 0.00 0.00 55 1016.7
20260505064204 63 300 2.0 3.0 0.00 0.00 0.00 56 1016.9
20260505063659 63 285 2.0 4.0 0.00 0.00 0.00 57 1016.7
20260505063153 63 293 2.0 5.0 0.00 0.00 0.00 58 1016.9
20260505062647 62 305 2.0 5.0 0.00 0.00 0.00 55 1016.9
20260505062141 62 282 2.0 4.0 0.00 0.00 0.00 59 1016.7
20260505061904 62 267 1.0 3.0 0.00 0.00 0.00 63 1016.9
20260505061129 62 267 1.0 3.0 0.00 0.00 0.00 63 1016.7
20260505060623 62 267 1.0 3.0 0.00 0.00 0.00 64 1016.7
20260505060346 62 267 1.0 3.0 0.00 0.00 0.00 65 1016.7
20260505055611 62 266 1.0 2.0 0.00 0.00 0.00 64 1016.7
20260505055105 62 266 0.0 2.0 0.00 0.00 0.00 64 1016.7
20260505054558 61 266 0.0 1.0 0.00 0.00 0.00 67 1016.6
20260505054052 61 266 0.0 1.0 0.00 0.00 0.00 66 1016.6
20260505053547 61 266 0.0 3.0 0.00 0.00 0.00 67 1016.6
20260505053533 60 266 1.0 3.0 0.00 0.00 0.00 66 1016.6
20260505052539 60 266 0.0 2.0 0.00 0.00 0.00 65 1016.6
20260505052304 60 266 1.0 3.0 0.00 0.00 0.00 65 1016.6
20260505051537 60 266 1.0 3.0 0.00 0.00 0.00 64 1016.5
20260505051037 61 266 0.0 2.0 0.00 0.00 0.00 60 1016.6
20260505050536 61 266 0.0 0.0 0.00 0.00 0.00 61 1016.6
20260505041533 56 266 0.0 0.0 0.00 0.00 0.00 65 1016.5
20260505041031 55 266 0.0 0.0 0.00 0.00 0.00 64 1016.5
20260505040531 55 266 0.0 0.0 0.00 0.00 0.00 64 1016.5
20260505040031 55 266 0.0 0.0 0.00 0.00 0.00 64 1016.5
20260505040015 55 266 0.0 0.0 0.00 0.00 0.00 64 1016.5
20260505035019 55 266 0.0 0.0 0.00 0.00 0.00 65 1016.5
20260505034512 55 266 0.0 0.0 0.00 0.00 0.00 66 1016.5
20260505034228 55 266 0.0 0.0 0.00 0.00 0.00 66 1016.4
20260505033501 55 266 0.0 0.0 0.00 0.00 0.00 66 1016.4
20260505032955 55 266 0.0 0.0 0.00 0.00 0.00 66 1016.4
20260505032450 55 266 0.0 0.0 0.00 0.00 0.00 66 1016.4
20260505032423 56 266 0.0 1.0 0.00 0.00 0.00 67 1016.3
20260505031437 55 266 1.0 2.0 0.00 0.00 0.00 67 1016.3
20260505030940 55 266 1.0 2.0 0.00 0.00 0.00 67 1016.3
20260505030658 55 266 0.0 2.0 0.00 0.00 0.00 67 1016.3
20260505030156 55 266 0.0 0.0 0.00 0.00 0.00 67 1016.4
20260505025434 56 266 0.0 0.0 0.00 0.00 0.00 68 1016.4
20260505024933 56 266 0.0 0.0 0.00 0.00 0.00 68 1016.4
20260505024654 56 266 0.0 1.0 0.00 0.00 0.00 69 1016.4
20260505023930 56 267 0.0 2.0 0.00 0.00 0.00 69 1016.5
20260505023430 56 266 0.0 2.0 0.00 0.00 0.00 70 1016.5
20260505022931 56 266 0.0 2.0 0.00 0.00 0.00 69 1016.6
20260505022429 56 266 1.0 2.0 0.00 0.00 0.00 69 1016.6
20260505021926 56 266 0.0 2.0 0.00 0.00 0.00 69 1016.6
20260505021426 56 267 1.0 3.0 0.00 0.00 0.00 68 1016.6
20260505020925 56 266 1.0 3.0 0.00 0.00 0.00 66 1016.7
20260505020642 56 101 0.0 0.0 0.00 0.00 0.00 63 1016.6
20260505015923 56 101 0.0 0.0 0.00 0.00 0.00 65 1016.5
20260505015423 56 101 0.0 0.0 0.00 0.00 0.00 64 1016.6
20260505014919 56 101 0.0 1.0 0.00 0.00 0.00 63 1016.5
20260505014418 56 101 0.0 1.0 0.00 0.00 0.00 64 1016.5
20260505013919 56 101 0.0 0.0 0.00 0.00 0.00 63 1016.5
20260505013418 56 101 0.0 0.0 0.00 0.00 0.00 63 1016.6
20260505012918 56 101 0.0 1.0 0.00 0.00 0.00 63 1016.6
20260505012419 56 101 0.0 1.0 0.00 0.00 0.00 63 1016.6
20260505011918 56 101 0.0 1.0 0.00 0.00 0.00 63 1016.7
20260505011419 56 101 0.0 1.0 0.00 0.00 0.00 63 1016.9
20260505010919 56 101 0.0 2.0 0.00 0.00 0.00 63 1016.7
20260505010415 56 101 0.0 2.0 0.00 0.00 0.00 63 1016.7
20260505005914 56 101 0.0 2.0 0.00 0.00 0.00 62 1016.7
20260505005415 56 101 0.0 0.0 0.00 0.00 0.00 62 1016.9
20260505004915 56 101 0.0 0.0 0.00 0.00 0.00 62 1016.9
20260505004414 56 101 0.0 0.0 0.00 0.00 0.00 62 1016.7
20260505004141 56 101 0.0 0.0 0.00 0.00 0.00 61 1016.7
20260505003415 56 101 0.0 0.0 0.00 0.00 0.00 61 1016.9
20260505003139 56 101 0.0 0.0 0.00 0.00 0.00 62 1016.9
20260505002414 56 101 0.0 0.0 0.00 0.00 0.00 62 1016.9
20260505001908 56 101 0.0 0.0 0.00 0.00 0.00 63 1016.9
20260505001402 56 101 0.0 0.0 0.00 0.00 0.00 64 1016.9
20260505000856 57 101 0.0 0.0 0.00 0.00 0.00 63 1016.7
20260505000351 57 101 0.0 0.0 0.00 0.00 0.00 62 1016.9
20260504235844 57 101 0.0 0.0 0.00 0.00 0.00 62 1016.9
20260504235338 57 101 0.0 0.0 0.00 0.00 0.00 62 1016.7
20260504234831 57 101 0.0 0.0 0.00 0.00 0.00 61 1016.9
20260504234326 57 101 0.0 0.0 0.00 0.00 0.00 59 1016.9
20260504233821 58 101 0.0 0.0 0.00 0.00 0.00 59 1017.0
20260504233313 58 101 0.0 0.0 0.00 0.00 0.00 59 1017.0
20260504232807 58 101 0.0 0.0 0.00 0.00 0.00 58 1017.0
20260504232529 58 101 0.0 0.0 0.00 0.00 0.00 59 1017.1
20260504231756 58 101 0.0 0.0 0.00 0.00 0.00 60 1017.1
20260504231250 57 101 0.0 0.0 0.00 0.00 0.00 59 1017.1
20260504230744 58 101 0.0 0.0 0.00 0.00 0.00 59 1017.0
20260504230439 58 101 0.0 0.0 0.00 0.00 0.00 60 1017.1
20260504230322 58 101 0.0 0.0 0.00 0.00 0.00 59 1017.1
20260504225226 59 101 0.0 0.0 0.00 0.00 0.00 60 1017.1
20260504224719 59 101 0.0 0.0 0.00 0.00 0.00 56 1017.1
20260504224214 58 101 0.0 0.0 0.00 0.00 0.00 55 1017.2
20260504223707 58 101 0.0 0.0 0.00 0.00 0.00 55 1017.1
20260504223203 58 101 0.0 0.0 0.00 0.00 0.00 55 1017.2
20260504222657 59 101 0.0 1.0 0.00 0.00 0.00 54 1017.1
20260504222149 59 101 0.0 1.0 0.00 0.00 0.00 54 1017.1
20260504221644 59 101 0.0 1.0 0.00 0.00 0.00 54 1017.2
20260504221138 59 101 0.0 0.0 0.00 0.00 0.00 54 1017.2
20260504220632 59 101 0.0 2.0 0.00 0.00 0.00 54 1017.2
20260504220341 59 101 0.0 2.0 0.00 0.00 0.00 54 1017.2
20260504215619 59 103 0.0 2.0 0.00 0.00 0.00 54 1017.2
20260504215113 59 103 0.0 2.0 0.00 0.00 0.00 53 1017.3
20260504214608 59 103 0.0 2.0 0.00 0.00 0.00 54 1017.4
20260504214102 59 103 0.0 2.0 0.00 0.00 0.00 53 1017.2
20260504213821 59 103 0.0 0.0 0.00 0.00 0.00 53 1017.2
20260504213100 59 103 0.0 0.0 0.00 0.00 0.00 53 1017.2
20260504212817 60 103 0.0 1.0 0.00 0.00 0.00 54 1017.1
20260504212328 60 103 0.0 2.0 0.00 0.00 0.00 53 1017.1
20260504211558 60 103 0.0 2.0 0.00 0.00 0.00 54 1017.1
20260504211056 60 103 0.0 3.0 0.00 0.00 0.00 53 1017.1
20260504210554 60 103 0.0 3.0 0.00 0.00 0.00 53 1017.1
20260504210319 60 103 0.0 1.0 0.00 0.00 0.00 53 1017.1
20260504205550 60 103 0.0 1.0 0.00 0.00 0.00 53 1017.0
20260504205049 60 103 0.0 2.0 0.00 0.00 0.00 53 1017.1
20260504204546 60 103 1.0 2.0 0.00 0.00 0.00 53 1017.1
20260504204044 60 103 1.0 2.0 0.00 0.00 0.00 53 1017.0
20260504203543 60 103 0.0 1.0 0.00 0.00 0.00 53 1017.0
20260504203042 60 103 0.0 1.0 0.00 0.00 0.00 53 1016.9
20260504202542 60 103 0.0 1.0 0.00 0.00 0.00 53 1016.9
20260504202042 60 103 0.0 1.0 0.00 0.00 0.00 53 1016.9
20260504201542 60 103 1.0 3.0 0.00 0.00 0.00 53 1017.0
20260504201040 61 103 1.0 3.0 0.00 0.00 0.00 52 1016.9
20260504201021 61 103 0.0 2.0 0.00 0.00 0.00 52 1017.0
20260504200037 61 103 0.0 0.0 0.00 0.00 0.00 52 1016.9
20260504195536 62 103 0.0 0.0 0.00 0.00 0.00 52 1016.9
20260504195028 62 103 0.0 0.0 0.00 0.00 0.00 52 1016.7
20260504194521 62 103 0.0 0.0 0.00 0.00 0.00 52 1016.7
20260504194016 62 103 0.0 0.0 0.00 0.00 0.00 52 1016.7
20260504193733 62 103 0.0 0.0 0.00 0.00 0.00 52 1016.7
20260504193007 62 103 0.0 0.0 0.00 0.00 0.00 50 1016.6
20260504192722 62 103 0.0 0.0 0.00 0.00 0.00 51 1016.6
20260504192152 62 103 0.0 1.0 0.00 0.00 0.00 52 1016.6
20260504192036 62 103 0.0 1.0 0.00 0.00 0.00 52 1016.6
20260504190939 62 103 0.0 1.0 0.00 0.00 0.00 52 1016.6
20260504190434 63 103 0.0 2.0 0.00 0.00 0.00 52 1016.6
20260504190148 63 103 0.0 2.0 0.00 0.00 0.00 51 1016.6
20260504185422 64 103 0.0 2.0 0.00 0.00 0.00 49 1016.5
20260504184920 64 103 1.0 3.0 0.00 0.00 0.00 47 1016.5
20260504184410 64 103 2.0 4.0 0.00 0.00 0.00 46 1016.5
20260504183904 64 103 3.0 6.0 0.00 0.00 0.00 45 1016.4
20260504183358 64 104 3.0 6.0 0.00 0.00 0.00 44 1016.3
20260504182852 64 107 4.0 5.0 0.00 0.00 0.00 44 1016.3
20260504182612 64 107 3.0 6.0 0.00 0.00 0.00 44 1016.3
20260504181839 64 105 3.0 6.0 0.00 0.00 0.00 45 1016.2
20260504181334 64 123 4.0 7.0 0.00 0.00 0.00 44 1016.2
20260504180829 64 113 3.0 7.0 0.00 0.00 0.00 44 1016.2
20260504180321 64 108 2.0 5.0 0.00 0.00 0.00 45 1016.2
20260504175816 64 104 3.0 5.0 0.00 0.00 0.00 45 1016.2
20260504175309 64 89 2.0 5.0 0.00 0.00 0.00 46 1016.2
20260504174803 64 59 2.0 5.0 0.00 0.00 0.00 46 1016.2
20260504174257 65 98 3.0 7.0 0.00 0.00 0.00 48 1016.1
20260504173752 65 101 2.0 7.0 0.00 0.00 0.00 48 1016.1
20260504173246 65 111 3.0 6.0 0.00 0.00 0.00 49 1016.1
20260504172740 65 116 4.0 8.0 0.00 0.00 0.00 48 1016.0
20260504172234 66 93 3.0 8.0 0.00 0.00 0.00 47 1016.0
20260504171727 66 111 2.0 8.0 0.00 0.00 0.00 45 1016.0
20260504171420 67 122 2.0 7.0 0.00 0.00 0.00 44 1016.1
20260504171308 67 95 1.0 4.0 0.00 0.00 0.00 44 1016.0
20260504170430 67 108 3.0 7.0 0.00 0.00 0.00 44 1016.0